Weather History for Chicago Lansing, IL

Change the Weather History Date:

Tuesday, October 23, 2012

  Actual Average (KMDW) Record (KMDW)
Temperature  
Mean Temperature 63 °F 52 °F  
Max Temperature 66 °F 60 °F 85 °F (1963)
Min Temperature 60 °F 44 °F 25 °F (1981)
Degree Days  
Heating Degree Days 2 13  
Month to date heating degree days 228  
Since 1 July heating degree days 310  
Cooling Degree Days 0 0  
Month to date cooling degree days 13  
Year to date cooling degree days 1042  
Growing Degree Days 13 (Base 50)    
Moisture  
Dew Point 59 °F    
Average Humidity 90    
Maximum Humidity 95    
Minimum Humidity 82    
Precipitation  
Precipitation 0.05 in 0.11 in 1.48 in (2009)
Month to date precipitation 2.35  
Year to date precipitation 32.21  
Sea Level Pressure  
Sea Level Pressure 29.93 in    
Wind  
Wind Speed 5 mph (South)    
Max Wind Speed 15 mph    
Max Gust Speed 20 mph    
Visibility 9 miles    
Events Rain , Thunderstorm    
T = Trace of Precipitation, MM = Missing Value Source: NWS Daily Summary

Daily Weather History Graph

Daily Weather History Graph

Search for Another Location

Airport:

Trip Planner

Search our weather history database for the weather conditions in past years. The results will help you decide how hot, cold, wet, or windy it might be!

Date:

Astronomy

Oct. 23, 2012 Rise Set
Actual Time 7:11 AM CDT 5:56 PM CDT
Civil Twilight 6:43 AM CDT 6:24 PM CDT
Nautical Twilight 6:11 AM CDT 6:56 PM CDT
Astronomical Twilight 5:38 AM CDT 7:28 PM CDT
Moon 2:43 PM CDT (10/23) 12:59 AM CDT (10/23)
Length of Visible Light 11h 41m
Length of Day
10h 44m
Waxing Gibbous, 67% of the Moon is Illuminated
Oct 23
Waxing Gibbous
Oct 29
Full
Nov 6
Last Quarter
Nov 13
New
Nov 20
First Quarter

Hourly Weather History & Observations

Time (CDT) Temp. Dew Point Humidity Pressure Visibility Wind Dir Wind Speed Gust Speed Precip Events Conditions
12:15 AM 63.0 °F 60.8 °F 93% 29.93 in 10.0 mi Calm Calm - N/A   Overcast
12:35 AM 63.5 °F 61.0 °F 91% 29.92 in 10.0 mi ENE 3.5 mph - N/A   Overcast
12:55 AM 63.0 °F 60.8 °F 93% 29.92 in 10.0 mi Calm Calm - N/A   Overcast
1:15 AM 61.9 °F 60.4 °F 95% 29.92 in 7.0 mi East 3.5 mph - N/A Rain , Thunderstorm Light Thunderstorms and Rain
1:35 AM 62.6 °F 60.8 °F 94% 29.92 in 7.0 mi ENE 3.5 mph - N/A Thunderstorm Overcast
1:55 AM 62.6 °F 60.8 °F 94% 29.92 in 5.0 mi East 4.6 mph - N/A   Overcast
2:15 AM 61.9 °F 60.4 °F 95% 29.92 in 3.0 mi ESE 5.8 mph - N/A   Overcast
2:35 AM 62.2 °F 60.8 °F 95% 29.92 in 5.0 mi SSE 5.8 mph - N/A Thunderstorm Overcast
2:55 AM 62.6 °F 60.8 °F 94% 29.91 in 7.0 mi SE 4.6 mph - N/A   Overcast
3:15 AM 62.2 °F 60.8 °F 95% 29.91 in 7.0 mi SSE 3.5 mph - N/A   Overcast
3:35 AM 62.1 °F 60.3 °F 94% 29.90 in 10.0 mi South 4.6 mph - N/A   Overcast
4:15 AM 61.7 °F 59.4 °F 92% 29.90 in 10.0 mi SSW 4.6 mph - N/A   Overcast
4:35 AM 62.6 °F 58.3 °F 86% 29.90 in 10.0 mi SSW 3.5 mph - N/A   Overcast
4:55 AM 62.1 °F 57.6 °F 85% 29.90 in 10.0 mi Calm Calm - N/A   Overcast
5:15 AM 61.7 °F 57.4 °F 86% 29.91 in 10.0 mi SSW 3.5 mph - N/A   Overcast
5:35 AM 62.6 °F 57.2 °F 82% 29.91 in 10.0 mi Calm Calm - N/A   Overcast
6:15 AM 61.2 °F 57.2 °F 87% 29.90 in 10.0 mi SW 5.8 mph - N/A   Overcast
6:35 AM 61.2 °F 57.0 °F 86% 29.90 in 10.0 mi Calm Calm - N/A   Overcast
6:55 AM 61.0 °F 57.2 °F 87% 29.91 in 10.0 mi Calm Calm - N/A   Overcast
7:15 AM 60.8 °F 57.2 °F 88% 29.92 in 10.0 mi South 4.6 mph - N/A Thunderstorm Overcast
7:35 AM 61.0 °F 56.7 °F 86% 29.93 in 10.0 mi Calm Calm - N/A   Overcast
7:55 AM 61.2 °F 56.7 °F 85% 29.93 in 10.0 mi Calm Calm - N/A   Overcast
8:15 AM 61.5 °F 57.2 °F 86% 29.94 in 10.0 mi SSE 3.5 mph - N/A Rain Light Rain
8:35 AM 60.8 °F 56.5 °F 86% 29.95 in 10.0 mi South 12.7 mph - N/A Rain Light Rain
8:55 AM 60.1 °F 57.2 °F 90% 29.95 in 10.0 mi South 10.4 mph - N/A Rain Light Rain
9:15 AM 60.1 °F 58.1 °F 93% 29.96 in 10.0 mi SSW 6.9 mph - N/A Rain Light Rain
9:35 AM 60.3 °F 58.1 °F 93% 29.96 in 10.0 mi SSW 8.1 mph - N/A Rain Light Rain
9:55 AM 60.8 °F 58.6 °F 93% 29.95 in 10.0 mi SSW 4.6 mph - N/A Rain Light Rain
10:15 AM 61.3 °F 59.4 °F 93% 29.94 in 7.0 mi SSW 5.8 mph - N/A Rain , Thunderstorm Rain
10:35 AM 61.9 °F 60.1 °F 94% 29.95 in 7.0 mi SSW 9.2 mph - N/A Rain , Thunderstorm Light Thunderstorms and Rain
10:55 AM 61.9 °F 60.1 °F 94% 29.95 in 7.0 mi SSW 11.5 mph - 0.02 in Rain Light Rain
11:15 AM 62.6 °F 60.8 °F 94% 29.95 in 7.0 mi South 9.2 mph - N/A   Overcast
11:35 AM 61.9 °F 60.1 °F 94% 29.94 in 10.0 mi South 12.7 mph 17.3 mph N/A   Overcast
11:55 AM 62.2 °F 60.4 °F 94% 29.94 in 10.0 mi SSW 13.8 mph - N/A Thunderstorm Thunderstorm
12:15 PM 62.6 °F 60.8 °F 94% 29.94 in 7.0 mi SSW 15.0 mph - 0.02 in Rain Heavy Rain
12:35 PM 63.5 °F 61.0 °F 91% 29.94 in 10.0 mi SSW 11.5 mph 16.1 mph 0.03 in Thunderstorm Overcast
12:55 PM 63.5 °F 61.2 °F 92% 29.93 in 10.0 mi SSW 13.8 mph - 0.03 in Rain Light Rain
1:15 PM 63.9 °F 61.0 °F 90% 29.92 in 10.0 mi South 13.8 mph - N/A   Mostly Cloudy
1:35 PM 64.6 °F 60.8 °F 88% 29.92 in 10.0 mi SSW 10.4 mph - N/A   Mostly Cloudy
1:55 PM 63.9 °F 60.1 °F 87% 29.91 in 10.0 mi South 15.0 mph - N/A   Mostly Cloudy
2:15 PM 64.0 °F 60.3 °F 87% 29.91 in 10.0 mi South 11.5 mph 17.3 mph N/A   Overcast
2:35 PM 64.6 °F 61.2 °F 89% 29.91 in 10.0 mi South 10.4 mph - N/A Rain Light Rain
2:55 PM 66.2 °F 61.3 °F 84% 29.91 in 10.0 mi SSW 11.5 mph 19.6 mph N/A Rain Light Rain
3:15 PM 66.2 °F 61.2 °F 84% 29.91 in 10.0 mi SSW 12.7 mph - N/A   Mostly Cloudy
3:35 PM 65.8 °F 61.2 °F 85% 29.91 in 10.0 mi SSW 12.7 mph - N/A   Overcast
3:55 PM 65.8 °F 60.4 °F 83% 29.91 in 10.0 mi SSW 12.7 mph - N/A   Overcast
4:15 PM 65.8 °F 60.3 °F 82% 29.91 in 10.0 mi SSW 12.7 mph - N/A   Overcast
4:35 PM 65.3 °F 60.6 °F 85% 29.91 in 10.0 mi SSW 10.4 mph - N/A Rain Light Rain
4:55 PM 64.9 °F 60.8 °F 86% 29.91 in 10.0 mi SSW 9.2 mph - N/A   Overcast
5:15 PM 65.8 °F 60.8 °F 84% 29.91 in 10.0 mi South 8.1 mph - N/A   Overcast
5:35 PM 64.9 °F 60.3 °F 85% 29.91 in 10.0 mi South 10.4 mph - N/A   Scattered Clouds
5:55 PM 63.7 °F 59.9 °F 87% 29.91 in 10.0 mi South 5.8 mph - N/A   Clear
6:15 PM 62.6 °F 59.5 °F 90% 29.92 in 10.0 mi South 5.8 mph - N/A   Clear
6:35 PM 60.3 °F 58.1 °F 93% 29.93 in 10.0 mi South 4.6 mph - N/A   Clear
6:55 PM 61.7 °F 59.0 °F 91% 29.93 in 10.0 mi South 8.1 mph - N/A   Clear
7:15 PM 61.2 °F 59.0 °F 93% 29.93 in 10.0 mi South 8.1 mph - N/A   Clear
7:35 PM 60.8 °F 58.6 °F 93% 29.93 in 10.0 mi South 6.9 mph - N/A   Clear
7:55 PM 60.1 °F 58.3 °F 94% 29.93 in 10.0 mi South 6.9 mph - N/A   Scattered Clouds
8:15 PM 61.2 °F 59.4 °F 94% 29.94 in 10.0 mi South 6.9 mph - N/A   Mostly Cloudy
8:35 PM 62.1 °F 59.5 °F 91% 29.93 in 10.0 mi South 8.1 mph - N/A   Overcast
8:55 PM 61.7 °F 59.2 °F 91% 29.93 in 10.0 mi South 5.8 mph - N/A   Overcast
9:15 PM 61.2 °F 59.0 °F 93% 29.93 in 10.0 mi South 8.1 mph - N/A   Overcast
9:35 PM 61.7 °F 59.2 °F 91% 29.94 in 10.0 mi South 8.1 mph - N/A   Overcast
9:55 PM 62.6 °F 59.0 °F 88% 29.94 in 10.0 mi South 9.2 mph - N/A   Overcast
10:15 PM 62.1 °F 59.4 °F 91% 29.94 in 10.0 mi South 6.9 mph - N/A   Overcast
10:35 PM 62.1 °F 59.2 °F 90% 29.94 in 10.0 mi South 5.8 mph - N/A   Overcast
10:55 PM 62.1 °F 59.2 °F 90% 29.94 in 10.0 mi South 3.5 mph - N/A   Overcast
11:15 PM 61.9 °F 59.0 °F 90% 29.95 in 10.0 mi Calm Calm - N/A   Overcast
11:35 PM 61.9 °F 59.0 °F 90% 29.95 in 10.0 mi SSE 3.5 mph - N/A   Overcast
11:55 PM 61.9 °F 59.0 °F 90% 29.95 in 10.0 mi South 4.6 mph - N/A   Overcast